Location: Unspecified
(0.0000°N, 0.0000°E)
Time: 06:37:25
(UTC+01:00)

GPS 2-12 Rocket1 - Visible Passes

Search period start: 31 October 2014 00:00
Search period end: 10 November 2014 00:00
Orbit: 591 x 660 km, 20.0° (Epoch: 30 October)

Date Brightness Start Highest point End Pass type
(mag) Time Alt. Az. Time Alt. Az. Time Alt. Az.
31 Oct 6.0 04:08:12 13° E 04:08:12 13° E 04:08:45 10° E visible
31 Oct 3.4 05:45:20 22° W 05:48:04 54° SSW 05:52:36 10° ESE visible
31 Oct 5.3 19:38:42 10° NW 19:41:16 15° NNW 19:43:47 10° NNE visible
01 Nov 5.2 04:25:08 24° ESE 04:25:08 24° ESE 04:27:00 10° ESE visible
01 Nov 4.3 06:02:16 11° W 06:06:07 31° SSW 06:10:13 10° SE visible
02 Nov 4.3 04:42:03 36° SE 04:42:03 36° SE 04:44:56 10° ESE visible
03 Nov 4.2 04:58:55 32° S 04:58:55 32° S 05:02:34 10° SE visible
04 Nov 4.8 05:15:45 19° SSW 05:16:35 20° SSW 05:19:54 10° SSE visible
05 Nov 5.3 05:32:46 10° SW 05:34:46 13° SSW 05:36:46 10° SSE visible
06 Nov 6.0 04:12:13 10° SSE 04:12:13 10° SSE 04:12:19 10° SSE visible
07 Nov 5.8 04:28:58 11° S 04:28:58 11° S 04:29:15 10° SSE visible
